[[{"header":{"parameterUnit":"m.s-1","parameterCategory":1,"la1":30.2992,"la2":30.254,"lo1":-89.0895,"lo2":-89.0443,"dy":0.0025,"dx":0.0025,"nx":19,"ny":19,"refTime":"2026-04-03T21:00:00:Z","depth":0,"parameterNumber":2,"parameterNumberName":"U-component_of_WINDS"},"data":[0,0,0,-1.6322,-1.6322,-1.6304,-1.6304,-1.6291,-1.6291,0,0,0,0,0,0,0,0,0,0,0,-1.6333,-1.6333,-1.6322,-1.6322,-1.6304,-1.6304,-1.6291,-1.6291,0,0,0,0,0,0,0,0,0,0,0,-1.6333,-1.6333,-1.6333,-1.6322,-1.6304,-1.6304,-1.6291,-1.6301,0,0,0,0,0,0,0,0,0,0,-1.6316,-1.6332,-1.6333,-1.6333,-1.6322,-1.6304,-1.6304,-1.6301,-1.63,-1.6303,0,-1.6307,0,-1.6299,-1.629,-1.629,0,0,0,-1.6317,-1.6333,-1.6323,-1.6333,-1.6321,-1.6304,-1.6311,-1.63,-1.6299,-1.6301,-1.6307,-1.6306,-1.6299,-1.629,-1.629,-1.6322,-1.6322,0,0,-1.6318,-1.6333,-1.6324,-1.6322,-1.6326,-1.6311,-1.631,-1.63,-1.6306,-1.6307,-1.6305,-1.6298,-1.629,-1.629,-1.6322,-1.6322,0,0,0,-1.6324,-1.6334,-1.6324,-1.6323,-1.632,-1.6311,-1.631,-1.6306,-1.6302,-1.6305,-1.6298,-1.629,-1.629,-1.6321,-1.6322,-1.6354,0,0,0,-1.6324,-1.6337,-1.6324,-1.6333,-1.632,-1.6313,-1.6317,-1.6303,-1.6301,-1.6298,-1.629,-1.629,-1.6321,-1.6322,-1.6352,-1.6366,0,0,0,-1.6332,-1.6338,-1.6337,-1.6334,-1.6327,-1.6313,-1.6308,-1.6302,-1.6297,-1.629,-1.629,-1.6321,-1.6321,-1.635,-1.6363,-1.6378,0,0,0,-1.6344,-1.6366,-1.6338,-1.6359,-1.6327,-1.6333,-1.6307,-1.6311,-1.6309,-1.629,-1.6321,-1.6322,-1.635,-1.6362,-1.6377,-1.6393,-1.6401,0,0,-1.6379,-1.637,-1.6382,-1.6356,-1.6371,-1.6334,-1.6353,-1.6337,-1.6323,-1.6323,-1.6324,-1.6352,-1.6363,-1.6378,-1.6445,-1.6452,0,0,0,-1.6397,-1.6406,-1.6406,-1.6406,-1.6395,-1.6386,-1.6367,-1.6361,-1.636,-1.6326,-1.6362,-1.6368,-1.6376,-1.6383,-1.6389,-1.6394,-1.6326,-1.6326,-1.6326,-1.6467,-1.6449,-1.6466,-1.6445,-1.6445,-1.6425,-1.6423,-1.6412,-1.6392,-1.6401,-1.6401,-1.6444,-1.6453,-1.6457,-1.6463,-1.6409,-1.6409,-1.6409,-1.6409,-1.6516,-1.6525,-1.65,-1.6507,-1.6488,-1.6494,-1.6475,-1.6462,-1.6464,-1.6442,-1.6448,-1.6425,-1.6465,-1.6469,-1.6411,-1.6411,-1.641,-1.641,-1.641,-1.6559,-1.656,-1.6553,-1.6551,-1.6551,-1.6529,-1.6533,-1.6515,-1.6498,-1.6504,-1.6502,-1.6501,-1.6498,-1.6505,-1.6505,-1.6505,-1.6505,-1.6505,-1.6505,-1.6606,-1.6597,-1.6603,-1.6594,-1.6591,-1.6586,-1.6566,-1.6563,-1.6555,-1.6541,-1.6541,-1.6521,-1.6473,-1.646,-1.6507,-1.6507,-1.6507,-1.6506,-1.6506,-1.6661,-1.6646,-1.6655,-1.6652,-1.664,-1.6642,-1.6619,-1.6614,-1.6609,-1.6611,-1.659,-1.6558,-1.6547,-1.6542,-1.6532,-1.6595,-1.6595,-1.6595,-1.6595,-1.6697,-1.669,-1.6695,-1.6692,-1.6688,-1.6668,-1.6679,-1.6664,-1.6646,-1.6642,-1.663,-1.6616,-1.6612,-1.6603,-1.6597,-1.6587,-1.6662,-1.6662,-1.6662,-1.6729,-1.6721,-1.6734,-1.6717,-1.6706,-1.6698,-1.6707,-1.6704,-1.6681,-1.6665,-1.6638,-1.6635,-1.6611,-1.6604,-1.6586,-1.6577,-1.6558,0,0]},{"header":{"parameterUnit":"m.s-1","parameterCategory":1,"la1":30.2992,"la2":30.254,"lo1":-89.0895,"lo2":-89.0443,"dy":0.0025,"dx":0.0025,"nx":19,"ny":19,"refTime":"2026-04-03T21:00:00:Z","depth":0,"parameterNumber":3,"parameterNumberName":"V-component_of_WINDS"},"data":[0,0,0,3.8589,3.859,3.8624,3.8624,3.8684,3.8684,0,0,0,0,0,0,0,0,0,0,0,3.8587,3.8588,3.8589,3.859,3.8624,3.8624,3.8684,3.8684,0,0,0,0,0,0,0,0,0,0,0,3.8587,3.8587,3.8588,3.859,3.8624,3.8624,3.8683,3.8652,0,0,0,0,0,0,0,0,0,0,3.8617,3.8622,3.8587,3.8588,3.859,3.8624,3.8624,3.8651,3.8654,3.8675,0,3.8694,0,3.869,3.8689,3.869,0,0,0,3.8584,3.8619,3.8621,3.8588,3.8591,3.8624,3.8607,3.8652,3.8657,3.868,3.8695,3.8696,3.8691,3.869,3.869,3.8828,3.8829,0,0,3.8582,3.8597,3.8618,3.8624,3.8618,3.8606,3.8608,3.8655,3.8672,3.8695,3.8698,3.8692,3.869,3.8691,3.8827,3.8828,0,0,0,3.8581,3.8596,3.8597,3.8622,3.8627,3.8607,3.8609,3.867,3.8669,3.8698,3.8693,3.8691,3.8692,3.8826,3.8827,3.8888,0,0,0,3.8579,3.8595,3.8596,3.8606,3.8626,3.8649,3.8624,3.8666,3.867,3.8693,3.8691,3.8692,3.8825,3.8826,3.8884,3.8915,0,0,0,3.8582,3.8596,3.8603,3.8607,3.8622,3.8647,3.8649,3.8666,3.8668,3.869,3.8693,3.8824,3.8826,3.8881,3.8909,3.8957,0,0,0,3.8589,3.8656,3.8605,3.8678,3.8622,3.8685,3.8648,3.8694,3.872,3.8691,3.8825,3.8827,3.888,3.8905,3.8953,3.9001,3.9021,0,0,3.8682,3.8668,3.8709,3.8665,3.8741,3.8678,3.8764,3.8773,3.8761,3.8807,3.881,3.8886,3.8908,3.8956,3.9132,3.9148,0,0,0,3.8744,3.8775,3.8791,3.8817,3.8826,3.8838,3.8832,3.8836,3.8874,3.8787,3.8915,3.8928,3.8955,3.8977,3.8992,3.9015,3.8837,3.8837,3.8837,3.8897,3.8879,3.8948,3.8936,3.8962,3.8957,3.8977,3.8982,3.8955,3.8986,3.8999,3.9108,3.9134,3.9145,3.917,3.9022,3.9023,3.9023,3.9023,3.9032,3.9073,3.9039,3.9094,3.9076,3.9122,3.9122,3.9102,3.9144,3.9095,3.9119,3.9068,3.9164,3.9185,3.9027,3.9027,3.9026,3.9026,3.9025,3.9131,3.9148,3.9152,3.919,3.9222,3.9207,3.925,3.9232,3.9215,3.9238,3.9251,3.925,3.9248,3.9245,3.9246,3.9246,3.9247,3.9247,3.9247,3.9232,3.9235,3.9272,3.9291,3.9307,3.9326,3.9325,3.934,3.9353,3.9337,3.9337,3.9309,3.9176,3.9143,3.9253,3.9252,3.9251,3.9251,3.925,3.9376,3.9341,3.94,3.9416,3.9438,3.9473,3.9449,3.9484,3.9495,3.9517,3.9485,3.9389,3.9373,3.9362,3.9335,3.9487,3.9487,3.9487,3.9487,3.946,3.9451,3.9508,3.9536,3.9562,3.9548,3.9618,3.9619,3.9615,3.9621,3.9597,3.9559,3.9549,3.9539,3.9524,3.9498,3.9689,3.9689,3.9689,3.9549,3.9542,3.9604,3.9599,3.9616,3.9632,3.9697,3.9733,3.9721,3.9697,3.9626,3.9618,3.9557,3.9538,3.9512,3.9489,3.9442,0,0]}]]